Weather observations for the past three days for
San Carlos Airport
| Date | Time (pdt) | Wind (mph) | Vis. (mi.) | Weather | Sky Cond. | Temperature (ºF) | Relative Humidity | Wind Chill (°F) | Heat Index (°F) | Pressure | Precipitation (in) | ||||||
|---|---|---|---|---|---|---|---|---|---|---|---|---|---|---|---|---|---|
| Air | Dwpt | 6 hour | altimeter (in) | sea level (mb) | 1 hr | 3 hr | 6 hr | ||||||||||
| Max. | Min. | ||||||||||||||||
| 06 | 23:35 | Calm | 9.00 | Mostly Cloudy | BKN014 | 57.2 | 53.6 | 88% | 30.12 | 0.0 | |||||||
| 06 | 23:15 | Calm | 9.00 | Fair | CLR | 57.2 | 53.6 | 88% | 30.12 | 0.0 | |||||||
| 06 | 22:55 | NW 8 | 9.00 | Fair | CLR | 57.2 | 53.6 | 88% | 30.11 | 0.0 | |||||||
| 06 | 22:35 | NW 8 | 9.00 | Fair | CLR | 57.2 | 53.6 | 88% | 30.11 | 0.0 | |||||||
| 06 | 22:15 | NW 10 | 9.00 | Fair | CLR | 57.2 | 53.6 | 88% | 30.11 | 0.0 | |||||||
| 06 | 21:55 | NW 13 | 9.00 | Fair | CLR | 57.2 | 53.6 | 88% | 30.11 | 0.0 | |||||||
| 06 | 21:35 | NW 9 | 9.00 | Fair | CLR | 59 | 53.6 | 82% | 30.11 | 0.0 | |||||||
| 06 | 21:15 | N 5 G 12 | 10.00 | Fair | CLR | 57.2 | 53.6 | 88% | 30.11 | 0.0 | |||||||
| 06 | 20:50 | W 7 | 10.00 | Clear | SKC | 60.8 | 51.8 | 72% | 30.08 | 0.0 | |||||||
| 06 | 19:50 | NW 13 | 10.00 | Clear | SKC | 60.8 | 51.8 | 72% | 30.08 | 0.0 | |||||||
| 06 | 18:50 | W 13 | 10.00 | Clear | SKC | 64.4 | 53.6 | 68% | 30.08 | 0.0 | |||||||
| 06 | 17:50 | W 14 | 10.00 | Clear | SKC | 69.8 | 53.6 | 57% | 30.07 | 0.0 | |||||||
| 06 | 16:50 | NW 10 | 10.00 | Clear | SKC | 71.6 | 53.6 | 53% | 30.07 | 0.0 | |||||||
| 06 | 15:50 | NW 13 | 10.00 | Clear | SKC | 71.6 | 53.6 | 53% | 30.08 | 0.0 | |||||||
| 06 | 13:50 | N 7 | 10.00 | Clear | SKC | 69.8 | 53.6 | 57% | 30.12 | 0.0 | |||||||
| 06 | 12:50 | NW 6 | 10.00 | Clear | SKC | 68 | 53.6 | 60% | 30.13 | 0.0 | |||||||
| 06 | 11:47 | N 8 | 10.00 | Clear | SKC | 64.4 | 53.6 | 68% | 30.15 | 0.0 | |||||||
| 06 | 10:47 | N 6 | 10.00 | Partly Cloudy | SCT023 | 64.4 | 51.8 | 64% | 30.16 | 0.0 | |||||||
| 06 | 08:47 | NW 6 | 10.00 | Overcast | OVC022 | 59 | 50 | 72% | 30.16 | 0.0 | |||||||
| 06 | 07:47 | NW 8 | 10.00 | Overcast | OVC022 | 57.2 | 51.8 | 82% | 30.15 | 0.0 | |||||||
| 06 | 06:55 | Calm | 9.00 | Overcast | OVC021 | 57.2 | 51.8 | 82% | 30.14 | 0.0 | |||||||
| 06 | 06:47 | NW 8 | 10.00 | Overcast | OVC022 | 57.2 | 51.8 | 82% | 30.14 | 0.0 | |||||||
| 06 | 06:35 | Calm | 9.00 | Overcast | OVC022 | 57.2 | 51.8 | 82% | 30.13 | 0.0 | |||||||
| 06 | 06:15 | NW 6 | 9.00 | Overcast | OVC022 | 57.2 | 51.8 | 82% | 30.12 | 0.0 | |||||||
| 06 | 05:55 | Calm | 10.00 | Overcast | OVC022 | 57.2 | 51.8 | 82% | 30.12 | 0.0 | |||||||
| 06 | 05:35 | Calm | 10.00 | Overcast | OVC024 | 57.2 | 51.8 | 82% | 30.12 | 0.0 | |||||||
| 06 | 05:15 | Calm | 9.00 | Partly Cloudy | SCT024 | 55.4 | 51.8 | 88% | 30.12 | 0.0 | |||||||
| 06 | 04:55 | Calm | 10.00 | Fair | CLR | 55.4 | 51.8 | 88% | 30.12 | 0.0 | |||||||
| 06 | 04:35 | Calm | 9.00 | A Few Clouds | FEW026 | 55.4 | 51.8 | 88% | 30.11 | 0.0 | |||||||
| 06 | 04:15 | Calm | 10.00 | Partly Cloudy | SCT026 | 55.4 | 51.8 | 88% | 30.11 | 0.0 | |||||||
| 06 | 03:55 | Calm | 9.00 | Fair | CLR | 57.2 | 51.8 | 82% | 30.1 | 0.0 | |||||||
| 06 | 03:35 | Calm | 10.00 | A Few Clouds | FEW020 | 57.2 | 51.8 | 82% | 30.1 | 0.0 | |||||||
| 06 | 03:15 | Calm | 10.00 | Partly Cloudy | SCT020 | 57.2 | 51.8 | 82% | 30.1 | 0.0 | |||||||
| 06 | 02:55 | Calm | 10.00 | Partly Cloudy | SCT021 | 57.2 | 51.8 | 82% | 30.1 | 0.0 | |||||||
| 06 | 02:35 | Calm | 9.00 | Partly Cloudy | FEW018 FEW023 SCT035 | 57.2 | 51.8 | 82% | 30.1 | 0.0 | |||||||
| 06 | 02:15 | Calm | 10.00 | Overcast | OVC035 | 57.2 | 51.8 | 82% | 30.1 | 0.0 | |||||||
| 06 | 01:55 | Calm | 9.00 | Overcast | OVC035 | 59 | 53.6 | 82% | 30.1 | 0.0 | |||||||
| 06 | 01:35 | NW 6 | 10.00 | Overcast | OVC035 | 59 | 53.6 | 82% | 30.1 | 0.0 | |||||||
| 06 | 01:15 | Calm | 10.00 | Overcast | OVC035 | 59 | 53.6 | 82% | 30.1 | 0.0 | |||||||
| 06 | 00:55 | Calm | 10.00 | Overcast | OVC035 | 59 | 53.6 | 82% | 30.1 | 0.0 | |||||||
| 06 | 00:35 | NW 5 | 9.00 | Overcast | OVC035 | 59 | 53.6 | 82% | 30.09 | 0.0 | |||||||
| 06 | 00:15 | NW 7 | 10.00 | Overcast | OVC035 | 59 | 53.6 | 82% | 30.09 | 0.0 | |||||||
| 05 | 23:55 | NW 5 | 10.00 | Overcast | OVC035 | 59 | 53.6 | 82% | 30.09 | 0.0 | |||||||
| 05 | 23:35 | N 5 | 10.00 | Overcast | OVC035 | 57.2 | 53.6 | 88% | 30.08 | 0.0 | |||||||
| 05 | 23:15 | Calm | 10.00 | Overcast | OVC036 | 57.2 | 53.6 | 88% | 30.08 | 0.0 | |||||||
| 05 | 22:55 | Calm | 10.00 | Overcast | OVC037 | 59 | 51.8 | 77% | 30.08 | 0.0 | |||||||
| 05 | 22:35 | Calm | 10.00 | Overcast | OVC037 | 59 | 51.8 | 77% | 30.07 | 0.0 | |||||||
| 05 | 22:15 | Calm | 10.00 | Overcast | OVC037 | 59 | 53.6 | 82% | 30.07 | 0.0 | |||||||
| 05 | 21:55 | Vrbl 5 | 10.00 | Overcast | OVC037 | 59 | 51.8 | 77% | 30.06 | 0.0 | |||||||
| 05 | 21:35 | NW 6 | 10.00 | Overcast | OVC038 | 59 | 51.8 | 77% | 30.06 | 0.0 | |||||||
| 05 | 21:15 | NW 5 | 10.00 | Overcast | OVC039 | 59 | 51.8 | 77% | 30.05 | 0.0 | |||||||
| 05 | 20:47 | W 7 | 10.00 | Overcast | OVC039 | 59 | 50 | 72% | 30.05 | 0.0 | |||||||
| 05 | 19:47 | W 13 | 10.00 | Overcast | OVC035 | 60.8 | 50 | 68% | 30.02 | 0.0 | |||||||
| 05 | 17:47 | W 13 | 10.00 | Overcast | OVC039 | 62.6 | 50 | 64% | 30.01 | 0.0 | |||||||
| 05 | 16:47 | SW 15 | 10.00 | Overcast | OVC032 | 62.6 | 50 | 64% | 30 | 0.0 | |||||||
| 05 | 14:47 | SW 9 | 10.00 | Overcast | OVC030 | 64.4 | 50 | 60% | 30.02 | 0.0 | |||||||
| 05 | 13:47 | SW 9 | 10.00 | Overcast | OVC030 | 62.6 | 50 | 64% | 30.02 | 0.0 | |||||||
| 05 | 12:50 | W 9 | 10.00 | Overcast | OVC029 | 62.6 | 46.4 | 56% | 30.02 | 0.0 | |||||||
| 05 | 11:47 | NW 8 | 10.00 | Mostly Cloudy | SCT021 BKN027 | 62.6 | 50 | 64% | 30.02 | 0.0 | |||||||
| 05 | 10:47 | W 10 | 9.00 | Overcast | BKN021 OVC026 | 57.2 | 51.8 | 82% | 30.02 | 0.0 | |||||||
| 05 | 09:47 | W 9 | 6.00 | Overcast with Haze | OVC020 | 55.4 | 51.8 | 88% | 30.01 | 0.0 | |||||||
| 05 | 08:50 | W 6 | 10.00 | Overcast | BKN030 OVC045 | 55.4 | 50 | 82% | 30.01 | 0.0 | |||||||
| 05 | 07:50 | SW 5 | 10.00 | Overcast | FEW025 OVC055 | 55.4 | 50 | 82% | 29.99 | 0.0 | |||||||
| 05 | 06:55 | Calm | 9.00 | Overcast | BKN050 OVC055 | 55.4 | 50 | 82% | 29.98 | 0.0 | |||||||
| 05 | 06:50 | Calm | 10.00 | Overcast | OVC047 | 53.6 | 48.2 | 82% | 29.98 | 0.0 | |||||||
| 05 | 06:35 | Calm | 9.00 | Overcast | OVC047 | 55.4 | 50 | 82% | 29.98 | 0.0 | |||||||
| 05 | 06:15 | Calm | 9.00 | Overcast | OVC043 | 53.6 | 51.8 | 94% | 29.97 | 0.0 | |||||||
| 05 | 05:55 | Calm | 9.00 | Overcast | OVC041 | 55.4 | 51.8 | 88% | 29.98 | 0.0 | |||||||
| 05 | 05:35 | Calm | 9.00 | Overcast | BKN046 OVC055 | 53.6 | 51.8 | 94% | 29.98 | 0.0 | |||||||
| 05 | 05:15 | Calm | 9.00 | Overcast | OVC060 | 53.6 | 51.8 | 94% | 29.98 | 0.0 | |||||||
| 05 | 04:55 | Calm | 6.00 | Fog/Mist | FEW032 SCT037 OVC060 | 53.6 | 51.8 | 94% | 29.98 | 0.0 | |||||||
| 05 | 04:35 | Calm | 8.00 | Overcast | BKN032 BKN043 OVC060 | 55.4 | 50 | 82% | 29.98 | 0.0 | |||||||
| 05 | 04:15 | Calm | 10.00 | Overcast | FEW035 FEW043 OVC060 | 55.4 | 51.8 | 88% | 29.98 | 0.0 | |||||||
| 05 | 03:55 | Calm | 9.00 | Overcast | OVC060 | 53.6 | 51.8 | 94% | 29.98 | 0.0 | |||||||
| 05 | 03:35 | Calm | 8.00 | Overcast | OVC065 | 53.6 | 50 | 88% | 29.98 | 0.0 | |||||||
| 05 | 03:15 | Calm | 9.00 | Overcast | OVC070 | 53.6 | 50 | 88% | 29.98 | 0.0 | |||||||
| 05 | 02:55 | Calm | 9.00 | Overcast | FEW060 OVC070 | 55.4 | 50 | 82% | 29.98 | 0.0 | |||||||
| 05 | 02:35 | Calm | 9.00 | Overcast | OVC070 | 55.4 | 50 | 82% | 29.99 | 0.0 | |||||||
| 05 | 02:15 | Calm | 9.00 | Overcast | FEW055 BKN070 OVC090 | 55.4 | 50 | 82% | 29.99 | 0.0 | |||||||
| 05 | 01:55 | Calm | 7.00 | Overcast | FEW060 OVC080 | 55.4 | 50 | 82% | 30 | 0.0 | |||||||
| 05 | 01:35 | Calm | 10.00 | Overcast | OVC080 | 55.4 | 50 | 82% | 30 | 0.0 | |||||||
| 05 | 01:15 | Calm | 9.00 | Overcast | FEW041 BKN090 OVC120 | 53.6 | 50 | 88% | 30 | 0.0 | |||||||
| 05 | 00:55 | Calm | 7.00 | Overcast | SCT041 BKN065 OVC120 | 53.6 | 50 | 88% | 30.01 | 0.0 | |||||||
| 05 | 00:35 | Calm | 8.00 | Overcast | SCT040 SCT065 OVC075 | 55.4 | 48.2 | 77% | 30.01 | 0.0 | |||||||
| 05 | 00:15 | W 7 | 9.00 | Overcast | SCT065 OVC080 | 55.4 | 48.2 | 77% | 30.01 | 0.0 | |||||||
| 04 | 23:55 | NW 10 | 9.00 | Overcast | BKN080 OVC090 | 55.4 | 46.4 | 72% | 30 | 0.0 | |||||||
| 04 | 23:35 | NW 8 | 10.00 | Overcast | FEW048 BKN080 OVC090 | 55.4 | 46.4 | 72% | 30 | 0.0 | |||||||
| 04 | 23:15 | Calm | 9.00 | Overcast | FEW050 OVC100 | 55.4 | 46.4 | 72% | 29.99 | 0.0 | |||||||
| 04 | 22:55 | Calm | 10.00 | Overcast | OVC110 | 55.4 | 46.4 | 72% | 29.99 | 0.0 | |||||||
| 04 | 22:35 | NW 7 G 14 | 9.00 | Mostly Cloudy | BKN110 | 57.2 | 46.4 | 67% | 30 | 0.0 | |||||||
| 04 | 22:15 | NW 5 G 12 | 10.00 | Partly Cloudy | SCT100 | 57.2 | 48.2 | 72% | 30 | 0.0 | |||||||
| 04 | 21:55 | NW 13 | 9.00 | Partly Cloudy | FEW100 SCT120 | 57.2 | 48.2 | 72% | 30.01 | 0.0 | |||||||
| 04 | 21:35 | NW 9 | 10.00 | Mostly Cloudy | BKN022 | 57.2 | 50 | 77% | 30.01 | 0.0 | |||||||
| 04 | 21:15 | Calm | 10.00 | Overcast | OVC022 | 57.2 | 50 | 77% | 29.99 | 0.0 | |||||||
| 04 | 20:47 | W 9 | 10.00 | Fair | CLR | 57.2 | 48.2 | 72% | 29.99 | 0.0 | |||||||
| 04 | 19:47 | NW 10 | 10.00 | Overcast | SCT040 OVC150 | 59 | 48.2 | 68% | 29.98 | 0.0 | |||||||
| 04 | 18:47 | W 9 | 10.00 | Overcast | SCT040 OVC150 | 59 | 48.2 | 68% | 29.98 | 0.0 | |||||||
| 04 | 17:47 | W 10 | 10.00 | Overcast | OVC050 | 60.8 | 48.2 | 63% | 29.99 | 0.0 | |||||||
| 04 | 16:47 | W 13 | 10.00 | Overcast | OVC050 | 62.6 | 46.4 | 56% | 29.99 | 0.0 | |||||||
| 04 | 15:47 | W 15 | 10.00 | Overcast | BKN048 OVC055 | 64.4 | 46.4 | 52% | 29.99 | 0.0 | |||||||
| 04 | 13:47 | W 10 | 10.00 | Overcast | BKN050 OVC055 | 62.6 | 46.4 | 56% | 30 | 0.0 | |||||||
| 04 | 12:47 | W 13 | 10.00 | Mostly Cloudy | BKN050 | 62.6 | 46.4 | 56% | 30 | 0.0 | |||||||
| 04 | 11:47 | W 10 | 10.00 | Overcast | OVC050 | 60.8 | 48.2 | 63% | 30.01 | 0.0 | |||||||
| 04 | 09:59 | W 8 | 10.00 | Mostly Cloudy | SCT031 BKN035 BKN055 | 60.8 | 48.2 | 63% | 29.99 | 0.0 | |||||||
| 04 | 08:59 | Calm | 10.00 | Mostly Cloudy | BKN025 BKN032 BKN055 | 60.8 | 51.8 | 72% | 29.99 | 0.0 | |||||||
| 04 | 07:59 | Calm | 10.00 | NULL | NULL | 57.2 | 48.2 | 72% | 30 | 0.0 | |||||||
| 04 | 06:59 | Calm | 9.00 | NULL | NULL | 53.6 | 48.2 | 82% | 29.99 | 0.0 | |||||||
| 04 | 06:55 | Calm | 9.00 | Mostly Cloudy | BKN026 | 53.6 | 50 | 88% | 29.98 | 0.0 | |||||||
| 04 | 06:35 | Calm | 9.00 | Overcast | OVC026 | 55.4 | 50 | 82% | 29.98 | 0.0 | |||||||
| 04 | 06:15 | Calm | 9.00 | Partly Cloudy | FEW018 SCT027 | 55.4 | 50 | 82% | 29.97 | 0.0 | |||||||
| 04 | 05:55 | Calm | 9.00 | Partly Cloudy | SCT055 | 53.6 | 50 | 88% | 29.97 | 0.0 | |||||||
| 04 | 05:35 | Calm | 9.00 | Overcast | OVC055 | 55.4 | 50 | 82% | 29.97 | 0.0 | |||||||
| 04 | 05:15 | Calm | 10.00 | Overcast | OVC055 | 55.4 | 50 | 82% | 29.97 | 0.0 | |||||||
| 04 | 04:55 | Calm | 10.00 | Overcast | SCT050 OVC055 | 53.6 | 50 | 88% | 29.97 | 0.0 | |||||||
| 04 | 04:35 | Calm | 10.00 | Overcast | BKN049 OVC060 | 55.4 | 50 | 82% | 29.97 | 0.0 | |||||||
| 04 | 04:15 | Calm | 10.00 | Overcast | OVC047 | 55.4 | 50 | 82% | 29.97 | 0.0 | |||||||
| 04 | 03:55 | Calm | 9.00 | Overcast | SCT035 BKN044 OVC050 | 55.4 | 50 | 82% | 29.97 | 0.0 | |||||||
| 04 | 03:35 | Calm | 10.00 | Overcast | FEW027 BKN035 OVC055 | 55.4 | 48.2 | 77% | 29.97 | 0.0 | |||||||
| 04 | 03:15 | Calm | 10.00 | Overcast | SCT026 BKN033 OVC055 | 55.4 | 50 | 82% | 29.97 | 0.0 | |||||||
| 04 | 02:55 | Calm | 10.00 | Mostly Cloudy | FEW023 SCT029 BKN039 | 57.2 | 50 | 77% | 29.96 | 0.0 | |||||||
| 04 | 02:35 | Calm | 10.00 | Overcast | SCT029 BKN038 OVC043 | 55.4 | 48.2 | 77% | 29.96 | 0.0 | |||||||
| 04 | 02:15 | Calm | 10.00 | Mostly Cloudy | FEW030 BKN037 | 55.4 | 48.2 | 77% | 29.97 | 0.0 | |||||||
| 04 | 01:55 | Calm | 10.00 | Partly Cloudy | FEW032 FEW040 SCT049 | 55.4 | 48.2 | 77% | 29.97 | 0.0 | |||||||
| 04 | 01:35 | Calm | 10.00 | Mostly Cloudy | FEW040 BKN050 | 55.4 | 48.2 | 77% | 29.97 | 0.0 | |||||||
| 04 | 01:15 | Calm | 10.00 | Mostly Cloudy | BKN050 | 57.2 | 48.2 | 72% | 29.98 | 0.0 | |||||||
| 04 | 00:55 | Calm | 10.00 | Mostly Cloudy | BKN055 | 57.2 | 48.2 | 72% | 29.98 | 0.0 | |||||||
| 04 | 00:35 | Calm | 9.00 | Mostly Cloudy | BKN055 | 57.2 | 48.2 | 72% | 29.98 | 0.0 | |||||||
| 04 | 00:15 | Calm | 10.00 | Mostly Cloudy | BKN055 | 55.4 | 48.2 | 77% | 29.98 | 0.0 | |||||||
| Date | Time (pdt) | Wind (mph) | Vis. (mi.) | Weather | Sky Cond. | Air | Dwpt | Max. | Min. | Relative Humidity | Wind Chill (°F) | Heat Index (°F) | altimeter (in) | sea level (mb) | 1 hr | 3 hr | 6 hr |
| 6 hour | |||||||||||||||||
| Temperature (ºF) | Pressure | Precipitation (in) | |||||||||||||||